Date String (YYYY-MM-DD hh:mm:ss) UTC,Instrument flags,absolute air pressure of the measurement (hPa),sample flow rate (lpm),inlet stack bypass flow (lpm),air temperature of the measurement (°C),ambient temperature measured by the external sensor (°C),aerosol sample conditioner tube jacket temperature (°C),OPC LED temperature (°C),internal box temperature (°C),relative humidity of the measurement (%),span deviation,mass concentration of particles derived from Lorenz-Mie calculation of OPC scattering (μg/m³),mass concentration of particles derived from Lorenz-Mie calculation of OPC scattering (μg/m³),mass concentration of particles derived from Lorenz-Mie calculation of OPC scattering (μg/m³)
DateTimeUTC,F1_M11,P_M11,Q1_M11,Q2_M11,T1_M11,T2_M11,T3_M11,T4_M11,T5_M11,U1_M11,ZSPAN_M11,X2_M11,X0_M11,X1_M11
2023-12-25 23:00:00,SystemResetWarning,0826.5,5.00,000.00,018.6,017.4,000.0,027.2,020.0,10.9,0000.0,0004.74,0008.39,0004.48
2023-12-25 23:01:00,SystemResetWarning,0826.4,4.99,000.00,018.6,017.3,000.0,027.2,020.0,10.7,0000.0,0004.74,0008.23,0004.49
2023-12-25 23:02:00,SystemResetWarning,0826.5,5.00,000.00,018.6,017.3,000.0,027.2,020.0,10.6,0000.0,0004.72,0007.76,0004.48
2023-12-25 23:03:00,SystemResetWarning,0826.4,5.00,000.00,018.6,017.3,000.0,027.2,020.0,10.7,0000.0,0004.73,0007.27,0004.49
2023-12-25 23:04:00,SystemResetWarning,0826.4,5.01,000.00,018.6,017.3,000.0,027.2,020.0,10.8,0000.0,0004.72,0007.30,0004.49
2023-12-25 23:05:00,SystemResetWarning,0826.4,5.00,000.00,018.6,017.3,000.0,027.2,020.0,10.6,0000.0,0004.73,0007.84,0004.49
2023-12-25 23:06:00,SystemResetWarning,0826.4,5.00,000.00,018.6,017.3,000.0,027.2,020.0,10.6,0000.0,0004.75,0007.87,0004.50
2023-12-25 23:07:00,SystemResetWarning,0826.4,4.99,000.00,018.6,017.4,000.0,027.2,020.0,10.7,0000.0,0004.79,0007.91,0004.53
2023-12-25 23:08:00,SystemResetWarning,0826.5,5.00,000.00,018.6,017.4,000.0,027.2,020.0,10.7,0000.0,0004.78,0008.55,0004.54
2023-12-25 23:09:00,SystemResetWarning,0826.5,5.00,000.00,018.6,017.3,000.0,027.2,020.0,10.8,0000.0,0004.80,0008.79,0004.54
2023-12-25 23:10:00,SystemResetWarning,0826.5,5.00,000.00,018.6,017.3,000.0,027.2,020.0,10.7,0000.0,0004.82,0008.90,0004.55
2023-12-25 23:11:00,SystemResetWarning,0826.5,5.01,000.00,018.6,017.3,000.0,027.2,020.0,10.8,0000.0,0004.83,0008.92,0004.56
2023-12-25 23:12:00,SystemResetWarning,0826.4,5.01,000.00,018.6,017.3,000.0,027.2,020.0,10.8,0000.0,0004.82,0008.89,0004.56
2023-12-25 23:13:00,SystemResetWarning,0826.4,5.01,000.00,018.6,017.2,000.0,027.2,020.0,10.9,0000.0,0004.85,0008.96,0004.57
2023-12-25 23:14:00,SystemResetWarning,0826.4,5.00,000.00,018.6,017.2,000.0,027.2,020.0,10.9,0000.0,0004.86,0009.07,0004.56
2023-12-25 23:15:00,SystemResetWarning,0826.4,4.99,000.00,018.6,017.2,000.0,027.2,020.0,10.9,0000.0,0004.85,0009.03,0004.57
2023-12-25 23:16:00,SystemResetWarning,0826.4,5.00,000.00,018.6,017.2,000.0,027.2,020.0,11.0,0000.0,0004.87,0008.54,0004.58
2023-12-25 23:17:00,SystemResetWarning,0826.4,5.00,000.00,018.6,017.1,000.0,027.2,020.0,11.0,0000.0,0004.89,0008.57,0004.61
2023-12-25 23:18:00,SystemResetWarning,0826.4,5.01,000.00,018.6,017.2,000.0,027.1,020.1,11.0,0000.0,0004.89,0008.59,0004.61
2023-12-25 23:19:00,SystemResetWarning,0826.3,5.01,000.00,018.7,018.0,000.0,027.1,020.4,10.9,0000.0,0004.89,0007.91,0004.61
2023-12-25 23:20:00,SystemResetWarning,0826.4,4.99,000.00,018.8,018.6,000.0,027.1,020.5,10.8,0000.0,0004.89,0007.70,0004.61
2023-12-25 23:21:00,SystemResetWarning,0826.4,4.99,000.00,018.8,018.6,000.0,027.1,020.1,10.9,0000.0,0004.89,0007.59,0004.62
2023-12-25 23:22:00,SystemResetWarning,0826.4,5.00,000.00,018.8,018.4,000.0,027.1,020.0,10.9,0000.0,0004.89,0007.59,0004.62
2023-12-25 23:23:00,SystemResetWarning,0826.4,5.00,000.00,018.7,018.2,000.0,027.1,020.0,11.0,0000.0,0004.92,0007.73,0004.64
2023-12-25 23:24:00,SystemResetWarning,0826.4,5.00,000.00,018.7,018.0,000.0,027.1,020.0,11.0,0000.0,0004.90,0007.71,0004.65
2023-12-25 23:25:00,SystemResetWarning,0826.4,4.99,000.00,018.7,017.8,000.0,027.2,020.0,10.9,0000.0,0004.91,0007.67,0004.66
2023-12-25 23:26:00,SystemResetWarning,0826.4,5.00,000.00,018.7,017.7,000.0,027.2,020.0,11.0,0000.0,0004.93,0007.65,0004.68
2023-12-25 23:27:00,SystemResetWarning,0826.5,5.01,000.00,018.7,017.6,000.0,027.2,020.0,10.9,0000.0,0004.94,0007.65,0004.70
2023-12-25 23:28:00,SystemResetWarning,0826.5,5.01,000.00,018.7,017.5,000.0,027.2,020.0,10.8,0000.0,0004.93,0007.62,0004.68
2023-12-25 23:29:00,SystemResetWarning,0826.5,4.99,000.00,018.6,017.5,000.0,027.2,020.0,10.9,0000.0,0004.94,0008.09,0004.66
2023-12-25 23:30:00,SystemResetWarning,0826.6,4.99,000.00,018.6,017.4,000.0,027.2,020.0,10.9,0000.0,0004.97,0008.49,0004.67
2023-12-25 23:31:00,SystemResetWarning,0826.6,5.00,000.00,018.6,017.3,000.0,027.2,020.0,11.0,0000.0,0004.96,0008.50,0004.66
2023-12-25 23:32:00,SystemResetWarning,0826.6,4.99,000.00,018.6,017.3,000.0,027.2,020.0,11.0,0000.0,0004.93,0008.44,0004.64
2023-12-25 23:33:00,SystemResetWarning,0826.6,5.00,000.00,018.6,017.3,000.0,027.2,020.0,11.0,0000.0,0004.92,0008.43,0004.63
2023-12-25 23:34:00,SystemResetWarning,0826.6,5.00,000.00,018.6,017.3,000.0,027.2,020.0,10.9,0000.0,0004.92,0008.38,0004.62
2023-12-25 23:35:00,SystemResetWarning,0826.5,5.00,000.00,018.6,017.3,000.0,027.2,020.0,10.9,0000.0,0004.94,0008.37,0004.61
2023-12-25 23:36:00,SystemResetWarning,0826.6,5.00,000.00,018.6,017.3,000.0,027.2,020.0,10.9,0000.0,0004.95,0008.36,0004.61
2023-12-25 23:37:00,SystemResetWarning,0826.5,5.00,000.00,018.6,017.3,000.0,027.2,020.0,11.0,0000.0,0004.94,0008.37,0004.60
2023-12-25 23:38:00,SystemResetWarning,0826.5,5.00,000.00,018.6,017.2,000.0,027.2,020.0,10.9,0000.0,0004.93,0008.39,0004.57
2023-12-25 23:39:00,SystemResetWarning,0826.5,5.00,000.00,018.6,017.2,000.0,027.2,020.0,10.9,0000.0,0004.92,0008.38,0004.57
2023-12-25 23:40:00,SystemResetWarning,0826.4,5.00,000.00,018.6,017.2,000.0,027.2,020.0,11.0,0000.0,0004.91,0007.99,0004.57
2023-12-25 23:41:00,SystemResetWarning,0826.4,5.00,000.00,018.6,017.2,000.0,027.2,020.0,11.0,0000.0,0004.89,0007.56,0004.57
2023-12-25 23:42:00,SystemResetWarning,0826.4,5.00,000.00,018.6,017.3,000.0,027.2,020.0,11.0,0000.0,0004.90,0007.73,0004.58
2023-12-25 23:43:00,SystemResetWarning,0826.3,5.00,000.00,018.6,017.4,000.0,027.1,020.1,10.9,0000.0,0004.94,0008.60,0004.60
2023-12-25 23:44:00,SystemResetWarning,0826.4,5.01,000.00,018.7,018.1,000.0,027.1,020.5,10.8,0000.0,0004.96,0008.64,0004.61
2023-12-25 23:45:00,SystemResetWarning,0826.4,4.98,000.00,018.8,018.8,000.0,027.1,020.6,10.7,0000.0,0004.94,0008.59,0004.62
2023-12-25 23:46:00,SystemResetWarning,0826.4,4.99,000.00,018.8,018.7,000.0,027.1,020.2,10.7,0000.0,0004.93,0008.55,0004.63
2023-12-25 23:47:00,SystemResetWarning,0826.4,5.00,000.00,018.8,018.6,000.0,027.1,020.0,10.7,0000.0,0004.97,0008.62,0004.65
2023-12-25 23:48:00,SystemResetWarning,0826.4,5.00,000.00,018.8,018.3,000.0,027.1,020.0,10.7,0000.0,0005.04,0008.71,0004.69
2023-12-25 23:49:00,SystemResetWarning,0826.4,5.00,000.00,018.8,018.1,000.0,027.1,020.0,10.7,0000.0,0005.09,0008.78,0004.73
2023-12-25 23:50:00,SystemResetWarning,0826.4,5.00,000.00,018.7,018.0,000.0,027.2,020.0,10.7,0000.0,0005.11,0008.89,0004.76
2023-12-25 23:51:00,SystemResetWarning,0826.4,5.01,000.00,018.7,017.8,000.0,027.2,020.0,10.8,0000.0,0005.13,0008.95,0004.77
2023-12-25 23:52:00,SystemResetWarning,0826.4,5.01,000.00,018.7,017.7,000.0,027.2,020.0,10.8,0000.0,0005.15,0009.07,0004.77
2023-12-25 23:53:00,SystemResetWarning,0826.4,5.01,000.00,018.7,017.6,000.0,027.2,020.0,10.7,0000.0,0005.18,0009.14,0004.78
2023-12-25 23:54:00,SystemResetWarning,0826.4,5.00,000.00,018.7,017.5,000.0,027.2,020.0,10.7,0000.0,0005.16,0008.56,0004.79
2023-12-25 23:55:00,SystemResetWarning,0826.4,4.99,000.00,018.7,017.5,000.0,027.2,020.0,10.7,0000.0,0005.18,0008.87,0004.80
2023-12-25 23:56:00,SystemResetWarning,0826.4,5.00,000.00,018.7,017.4,000.0,027.2,020.0,10.7,0000.0,0005.19,0009.21,0004.80
2023-12-25 23:57:00,SystemResetWarning,0826.5,5.00,000.00,018.7,017.4,000.0,027.2,020.0,10.7,0000.0,0005.18,0009.43,0004.80
2023-12-25 23:58:00,SystemResetWarning,0826.4,5.00,000.00,018.7,017.3,000.0,027.2,020.0,10.7,0000.0,0005.15,0009.49,0004.79
2023-12-25 23:59:00,SystemResetWarning,0826.5,5.00,000.00,018.7,017.2,000.0,027.2,020.0,10.7,0000.0,0005.13,0009.70,0004.77
